Year,Month,Day,Hour,Minute,Value (Times are PST for temperature in C)
2008,10,18,00,00,8.50
2008,10,18,00,01,8.40
2008,10,18,00,02,8.40
2008,10,18,00,03,8.40
2008,10,18,00,04,8.40
2008,10,18,00,05,8.40
2008,10,18,00,06,8.40
2008,10,18,00,07,8.40
2008,10,18,00,08,8.40
2008,10,18,00,09,8.30
2008,10,18,00,10,8.30
2008,10,18,00,11,8.30
2008,10,18,00,12,8.30
2008,10,18,01,02,8.20
2008,10,18,01,03,8.20
2008,10,18,01,04,8.20
2008,10,18,01,05,8.20
2008,10,18,01,06,8.20
2008,10,18,01,07,8.20
2008,10,18,01,08,8.20
2008,10,18,01,09,8.20
2008,10,18,01,10,8.20
2008,10,18,01,11,8.20
2008,10,18,01,12,8.20
2008,10,18,01,13,8.20
2008,10,18,01,14,8.20
2008,10,18,01,15,8.20
2008,10,18,01,16,8.20
2008,10,18,01,17,8.20
2008,10,18,01,18,8.20
2008,10,18,01,19,8.20
2008,10,18,01,20,8.20
2008,10,18,01,21,8.20
2008,10,18,01,22,8.20
2008,10,18,01,23,8.20
2008,10,18,01,24,8.20
2008,10,18,01,25,8.20
2008,10,18,01,26,8.20
2008,10,18,01,27,8.20
2008,10,18,01,28,8.10
2008,10,18,01,29,8.10
2008,10,18,01,30,8.10
2008,10,18,01,31,8.10
2008,10,18,01,32,8.10
2008,10,18,01,33,8.10
2008,10,18,01,34,8.10
2008,10,18,01,35,8.10
2008,10,18,01,36,8.00
2008,10,18,01,37,8.00
2008,10,18,01,38,8.00
2008,10,18,01,39,8.00
2008,10,18,01,40,8.00
2008,10,18,01,41,8.00
2008,10,18,01,42,8.00
2008,10,18,01,43,8.00
2008,10,18,01,44,8.00
2008,10,18,01,45,8.00
2008,10,18,01,46,8.00
2008,10,18,01,47,8.00
2008,10,18,01,48,7.90
2008,10,18,01,49,7.90
2008,10,18,01,50,7.90
2008,10,18,01,51,7.90
2008,10,18,01,52,7.90
2008,10,18,01,53,7.90
2008,10,18,01,54,7.90
2008,10,18,01,55,7.90
2008,10,18,01,56,7.90
2008,10,18,01,57,7.80
2008,10,18,01,58,7.80
2008,10,18,01,59,7.80
2008,10,18,02,00,7.80
2008,10,18,02,01,7.80
2008,10,18,02,02,7.80
2008,10,18,02,03,7.80
2008,10,18,02,04,7.80
2008,10,18,02,05,7.80
2008,10,18,02,06,7.80
2008,10,18,02,07,7.80
2008,10,18,02,08,7.80
2008,10,18,02,09,7.80
2008,10,18,02,10,7.80
2008,10,18,02,11,7.80
2008,10,18,02,12,7.80
2008,10,18,02,13,7.80
2008,10,18,02,14,7.80
2008,10,18,02,15,7.80
2008,10,18,02,16,7.80
2008,10,18,02,17,7.80
2008,10,18,02,18,7.80
2008,10,18,02,19,7.80
2008,10,18,02,20,7.80
2008,10,18,02,21,7.80
2008,10,18,02,22,7.80
2008,10,18,02,23,7.80
2008,10,18,02,24,7.80
2008,10,18,02,25,7.80
2008,10,18,02,26,7.80
2008,10,18,02,27,7.80
2008,10,18,02,28,7.80
2008,10,18,02,29,7.80
2008,10,18,02,30,7.70
2008,10,18,02,31,7.70
2008,10,18,02,32,7.70
2008,10,18,02,33,7.70
2008,10,18,02,34,7.70
2008,10,18,02,35,7.70
2008,10,18,02,36,7.70
2008,10,18,02,37,7.70
2008,10,18,02,38,7.70
2008,10,18,02,39,7.60
2008,10,18,02,40,7.60
2008,10,18,02,41,7.60
2008,10,18,02,42,7.60
2008,10,18,02,43,7.60
2008,10,18,02,44,7.60
2008,10,18,02,45,7.50
2008,10,18,02,46,7.50
2008,10,18,02,47,7.50
2008,10,18,02,48,7.50
2008,10,18,02,49,7.50
2008,10,18,02,50,7.50
2008,10,18,02,51,7.50
2008,10,18,02,52,7.50
2008,10,18,02,53,7.50
2008,10,18,02,54,7.50
2008,10,18,02,55,7.40
2008,10,18,02,56,7.50
2008,10,18,02,57,7.50
2008,10,18,02,58,7.50
2008,10,18,02,59,7.60
2008,10,18,03,00,7.60
2008,10,18,03,01,7.60
2008,10,18,03,02,7.60
2008,10,18,03,03,7.60
2008,10,18,03,04,7.50
2008,10,18,03,05,7.50
2008,10,18,03,06,7.50
2008,10,18,03,07,7.40
2008,10,18,03,08,7.40
2008,10,18,03,09,7.40
2008,10,18,03,10,7.40
2008,10,18,03,11,7.40
2008,10,18,03,12,7.30
2008,10,18,03,13,7.30
2008,10,18,03,14,7.30
2008,10,18,03,15,7.30
2008,10,18,03,16,7.30
2008,10,18,03,17,7.30
2008,10,18,03,18,7.30
2008,10,18,03,19,7.20
2008,10,18,03,20,7.20
2008,10,18,03,21,7.20
2008,10,18,03,22,7.20
2008,10,18,03,23,7.10
2008,10,18,03,24,7.20
2008,10,18,03,25,7.10
2008,10,18,03,26,7.10
2008,10,18,03,27,7.10
2008,10,18,03,28,7.10
2008,10,18,03,29,7.10
2008,10,18,03,30,7.20
2008,10,18,03,31,7.20
2008,10,18,03,32,7.20
2008,10,18,03,33,7.20
2008,10,18,03,34,7.20
2008,10,18,03,35,7.20
2008,10,18,03,36,7.10
2008,10,18,03,37,7.10
2008,10,18,03,38,7.10
2008,10,18,03,39,7.10
2008,10,18,03,40,7.10
2008,10,18,03,41,7.10
2008,10,18,03,42,7.10
2008,10,18,03,43,7.10
2008,10,18,03,44,7.00
2008,10,18,03,45,7.00
2008,10,18,03,46,7.00
2008,10,18,03,47,7.00
2008,10,18,03,48,7.00
2008,10,18,03,49,7.00
2008,10,18,03,50,6.90
2008,10,18,03,51,6.90
2008,10,18,03,52,6.90
2008,10,18,03,53,6.90
2008,10,18,03,54,6.80
2008,10,18,03,55,6.80
2008,10,18,03,56,6.80
2008,10,18,03,57,6.80
2008,10,18,03,58,6.80
2008,10,18,03,59,6.80
2008,10,18,04,00,6.80
2008,10,18,04,01,6.80
2008,10,18,04,02,6.70
2008,10,18,04,03,6.70
2008,10,18,04,04,6.70
2008,10,18,04,05,6.70
2008,10,18,04,06,6.70
2008,10,18,04,07,6.70
2008,10,18,04,08,6.70
2008,10,18,04,09,6.70
2008,10,18,04,10,6.70
2008,10,18,04,11,6.70
2008,10,18,04,12,6.70
2008,10,18,04,13,6.70
2008,10,18,04,14,6.60
2008,10,18,04,15,6.60
2008,10,18,04,16,6.60
2008,10,18,04,17,6.60
2008,10,18,04,18,6.60
2008,10,18,04,19,6.60
2008,10,18,04,20,6.60
2008,10,18,04,21,6.60
2008,10,18,04,22,6.60
2008,10,18,04,23,6.60
2008,10,18,04,24,6.50
2008,10,18,04,25,6.40
2008,10,18,04,26,6.40
2008,10,18,04,27,6.40
2008,10,18,04,28,6.40
2008,10,18,04,29,6.40
2008,10,18,04,30,6.40
2008,10,18,04,31,6.40
2008,10,18,04,32,6.40
2008,10,18,04,33,6.40
2008,10,18,04,34,6.40
2008,10,18,04,35,6.40
2008,10,18,04,36,6.40
2008,10,18,04,37,6.30
2008,10,18,04,38,6.30
2008,10,18,04,39,6.30
2008,10,18,04,40,6.30
2008,10,18,04,41,6.30
2008,10,18,04,42,6.30
2008,10,18,04,43,6.20
2008,10,18,04,44,6.20
2008,10,18,04,45,6.20
2008,10,18,04,46,6.20
2008,10,18,04,47,6.20
2008,10,18,04,48,6.20
2008,10,18,04,49,6.20
2008,10,18,04,50,6.20
2008,10,18,04,51,6.20
2008,10,18,04,52,6.20
2008,10,18,04,53,6.20
2008,10,18,04,54,6.20
2008,10,18,04,55,6.20
2008,10,18,04,56,6.20
2008,10,18,04,57,6.20
2008,10,18,04,58,6.20
2008,10,18,04,59,6.20
2008,10,18,05,00,6.10
2008,10,18,05,01,6.10
2008,10,18,05,02,6.10
2008,10,18,05,03,6.10
2008,10,18,05,04,6.10
2008,10,18,05,05,6.10
2008,10,18,05,06,6.10
2008,10,18,05,07,6.00
2008,10,18,05,08,6.00
2008,10,18,05,09,6.00
2008,10,18,05,10,6.00
2008,10,18,05,11,6.00
2008,10,18,05,12,5.90
2008,10,18,05,13,5.90
2008,10,18,05,14,5.90
2008,10,18,05,15,5.90
2008,10,18,05,16,5.90
2008,10,18,05,17,5.90
2008,10,18,05,18,5.90
2008,10,18,05,19,5.80
2008,10,18,05,20,5.80
2008,10,18,05,21,5.80
2008,10,18,05,22,5.80
2008,10,18,05,23,5.80
2008,10,18,05,24,5.80
2008,10,18,05,25,5.80
2008,10,18,05,26,5.80
2008,10,18,05,27,5.80
2008,10,18,05,28,5.80
2008,10,18,05,29,5.80
2008,10,18,05,30,5.80
2008,10,18,05,31,5.80
2008,10,18,05,32,5.70
2008,10,18,05,33,5.70
2008,10,18,05,34,5.70
2008,10,18,05,35,5.70
2008,10,18,05,36,5.70
2008,10,18,05,37,5.70
2008,10,18,05,38,5.70
2008,10,18,05,39,5.70
2008,10,18,05,40,5.70
2008,10,18,05,41,5.70
2008,10,18,05,42,5.70
2008,10,18,05,43,5.70
2008,10,18,05,44,5.70
2008,10,18,05,45,5.70
2008,10,18,05,46,5.70
2008,10,18,05,47,5.70
2008,10,18,05,48,5.70
2008,10,18,05,49,5.70
2008,10,18,05,50,5.70
2008,10,18,05,51,5.70
2008,10,18,05,52,5.70
2008,10,18,05,53,5.70
2008,10,18,05,54,5.70
2008,10,18,05,55,5.70
2008,10,18,05,56,5.70
2008,10,18,05,57,5.70
2008,10,18,05,58,5.70
2008,10,18,05,59,5.70
2008,10,18,06,00,5.70
2008,10,18,06,01,5.70
2008,10,18,06,02,5.60
2008,10,18,06,03,5.60
2008,10,18,06,04,5.60
2008,10,18,06,05,5.60
2008,10,18,06,06,5.60
2008,10,18,06,07,5.60
2008,10,18,06,08,5.60
2008,10,18,06,09,5.60
2008,10,18,06,10,5.60
2008,10,18,06,11,5.60
2008,10,18,06,12,5.60
2008,10,18,06,13,5.60
2008,10,18,06,14,5.60
2008,10,18,06,15,5.60
2008,10,18,06,16,5.60
2008,10,18,06,17,5.60
2008,10,18,06,18,5.50
2008,10,18,06,19,5.50
2008,10,18,06,20,5.50
2008,10,18,06,21,5.50
2008,10,18,06,22,5.50
2008,10,18,06,23,5.50
2008,10,18,06,24,5.50
2008,10,18,06,25,5.50
2008,10,18,06,26,5.50
2008,10,18,06,27,5.50
2008,10,18,06,28,5.40
2008,10,18,06,29,5.40
2008,10,18,06,30,5.40
2008,10,18,06,31,5.40
2008,10,18,06,32,5.40
2008,10,18,06,33,5.40
2008,10,18,06,34,5.40
2008,10,18,06,35,5.40
2008,10,18,06,36,5.40
2008,10,18,06,37,5.30
2008,10,18,06,38,5.30
2008,10,18,06,39,5.30
2008,10,18,06,40,5.30
2008,10,18,06,41,5.30
2008,10,18,06,42,5.30
2008,10,18,06,43,5.30
2008,10,18,06,44,5.30
2008,10,18,06,45,5.30
2008,10,18,06,46,5.30
2008,10,18,06,47,5.30
2008,10,18,06,48,5.30
2008,10,18,06,49,5.30
2008,10,18,06,50,5.30
2008,10,18,06,51,5.30
2008,10,18,06,52,5.30
2008,10,18,06,53,5.30
2008,10,18,06,54,5.30
2008,10,18,06,55,5.30
2008,10,18,06,56,5.30
2008,10,18,06,57,5.30
2008,10,18,06,58,5.30
2008,10,18,06,59,5.30
2008,10,18,07,00,5.30
2008,10,18,07,01,5.30
2008,10,18,07,02,5.30
2008,10,18,07,03,5.30
2008,10,18,07,04,5.20
2008,10,18,07,05,5.20
2008,10,18,07,06,5.20
2008,10,18,07,07,5.20
2008,10,18,07,08,5.20
2008,10,18,07,09,5.20
2008,10,18,07,10,5.20
2008,10,18,07,11,5.20
2008,10,18,07,12,5.20
2008,10,18,07,13,5.10
2008,10,18,07,14,5.10
2008,10,18,07,15,5.10
2008,10,18,07,16,5.10
2008,10,18,07,17,5.10
2008,10,18,07,18,5.10
2008,10,18,07,19,5.10
2008,10,18,07,20,5.10
2008,10,18,07,21,5.10
2008,10,18,07,22,5.10
2008,10,18,07,23,5.10
2008,10,18,07,24,5.10
2008,10,18,07,25,5.10
2008,10,18,07,26,5.10
2008,10,18,07,27,5.10
2008,10,18,07,28,5.10
2008,10,18,07,29,5.10
2008,10,18,07,30,5.10
2008,10,18,07,31,5.10
2008,10,18,07,32,5.10
2008,10,18,07,33,5.10
2008,10,18,07,34,5.10
2008,10,18,07,35,5.10
2008,10,18,07,36,5.10
2008,10,18,07,37,5.10
2008,10,18,07,38,5.10
2008,10,18,07,39,5.00
2008,10,18,07,40,4.90
2008,10,18,07,41,4.90
2008,10,18,07,42,4.90
2008,10,18,07,43,4.90
2008,10,18,07,44,4.90
2008,10,18,07,45,4.90
2008,10,18,07,46,4.90
2008,10,18,07,47,4.90
2008,10,18,07,48,4.90
2008,10,18,07,49,4.90
2008,10,18,07,50,4.90
2008,10,18,07,51,4.90
2008,10,18,07,52,4.90
2008,10,18,07,53,4.90
2008,10,18,07,54,4.90
2008,10,18,07,55,4.90
2008,10,18,07,56,4.90
2008,10,18,07,57,4.90
2008,10,18,07,58,4.90
2008,10,18,07,59,4.90
2008,10,18,08,00,4.90
2008,10,18,08,01,4.90
2008,10,18,08,02,4.90
2008,10,18,08,03,4.90
2008,10,18,08,04,4.90
2008,10,18,08,05,4.90
2008,10,18,08,06,4.90
2008,10,18,08,07,4.90
2008,10,18,08,08,4.90
2008,10,18,08,09,4.90
2008,10,18,08,10,4.90
2008,10,18,08,11,4.90
2008,10,18,08,12,4.90
2008,10,18,08,13,4.90
2008,10,18,08,14,4.90
2008,10,18,08,15,4.90
2008,10,18,08,16,4.90
2008,10,18,08,17,4.90
2008,10,18,08,18,4.90
2008,10,18,08,19,4.90
2008,10,18,08,20,4.90
2008,10,18,08,21,4.90
2008,10,18,08,22,4.90
2008,10,18,08,23,4.90
2008,10,18,08,24,4.90
2008,10,18,08,25,4.90
2008,10,18,08,26,4.90
2008,10,18,08,27,4.90
2008,10,18,08,28,4.90
2008,10,18,08,29,4.90
2008,10,18,08,30,4.90
2008,10,18,08,31,4.90
2008,10,18,08,32,5.00
2008,10,18,08,33,5.10
2008,10,18,08,34,5.10
2008,10,18,08,35,5.10
2008,10,18,08,36,5.10
2008,10,18,08,37,5.10
2008,10,18,08,38,5.10
2008,10,18,08,39,5.10
2008,10,18,08,40,5.10
2008,10,18,08,41,5.20
2008,10,18,08,42,5.20
2008,10,18,08,43,5.20
2008,10,18,08,44,5.20
2008,10,18,08,45,5.30
2008,10,18,08,46,5.30
2008,10,18,08,47,5.30
2008,10,18,08,48,5.40
2008,10,18,08,49,5.50
2008,10,18,08,50,5.60
2008,10,18,08,51,5.70
2008,10,18,08,52,5.70
2008,10,18,08,53,5.80
2008,10,18,08,54,5.80
2008,10,18,08,55,5.90
2008,10,18,08,56,6.00
2008,10,18,08,57,6.00
2008,10,18,08,58,6.10
2008,10,18,08,59,6.10
2008,10,18,09,00,6.10
2008,10,18,09,01,6.20
2008,10,18,09,02,6.20
2008,10,18,09,03,6.40
2008,10,18,09,04,6.50
2008,10,18,09,05,6.60
2008,10,18,09,06,6.70
2008,10,18,09,07,6.70
2008,10,18,09,08,6.80
2008,10,18,09,09,6.80
2008,10,18,09,10,6.80
2008,10,18,09,11,6.80
2008,10,18,09,12,6.80
2008,10,18,09,13,6.90
2008,10,18,09,14,6.80
2008,10,18,09,15,6.90
2008,10,18,09,16,6.90
2008,10,18,09,17,6.90
2008,10,18,09,18,6.90
2008,10,18,09,19,6.90
2008,10,18,09,20,7.00
2008,10,18,09,21,7.00
2008,10,18,09,22,7.00
2008,10,18,09,23,7.10
2008,10,18,09,24,7.10
2008,10,18,09,25,7.10
2008,10,18,09,26,7.10
2008,10,18,09,27,7.20
2008,10,18,09,28,7.30
2008,10,18,09,29,7.30
2008,10,18,09,30,7.30
2008,10,18,09,31,7.30
2008,10,18,09,32,7.40
2008,10,18,09,33,7.40
2008,10,18,09,34,7.50
2008,10,18,09,35,7.60
2008,10,18,09,36,7.60
2008,10,18,09,37,7.70
2008,10,18,09,38,7.70
2008,10,18,09,39,7.80
2008,10,18,09,40,7.80
2008,10,18,09,41,7.80
2008,10,18,09,42,7.90
2008,10,18,09,43,8.00
2008,10,18,09,44,8.10
2008,10,18,09,45,8.30
2008,10,18,09,46,8.30
2008,10,18,09,47,8.40
2008,10,18,09,48,8.50
2008,10,18,09,49,8.50
2008,10,18,09,50,8.60
2008,10,18,09,51,8.60
2008,10,18,09,52,8.60
2008,10,18,09,53,8.70
2008,10,18,09,54,8.70
2008,10,18,09,55,8.80
2008,10,18,09,56,9.00
2008,10,18,09,57,9.00
2008,10,18,09,58,9.20
2008,10,18,09,59,9.20
2008,10,18,10,00,9.20
2008,10,18,10,01,9.30
2008,10,18,10,02,9.30
2008,10,18,10,03,9.40
2008,10,18,10,04,9.50
2008,10,18,10,05,9.60
2008,10,18,10,06,9.70
2008,10,18,10,07,9.70
2008,10,18,10,08,9.80
2008,10,18,10,09,9.90
2008,10,18,10,10,9.90
2008,10,18,10,11,9.90
2008,10,18,10,12,9.90
2008,10,18,10,13,9.90
2008,10,18,10,14,9.90
2008,10,18,10,15,9.90
2008,10,18,10,16,10.00
2008,10,18,10,17,10.10
2008,10,18,10,18,10.20
2008,10,18,10,19,10.20
2008,10,18,10,20,10.40
2008,10,18,10,21,10.50
2008,10,18,10,22,10.60
2008,10,18,10,23,10.70
2008,10,18,10,24,10.70
2008,10,18,10,25,10.70
2008,10,18,10,26,10.70
2008,10,18,10,27,10.70
2008,10,18,10,28,10.70
2008,10,18,10,29,10.70
2008,10,18,10,30,10.60
2008,10,18,10,31,10.60
2008,10,18,10,32,10.60
2008,10,18,10,33,10.60
2008,10,18,10,34,10.60
2008,10,18,10,35,10.60
2008,10,18,10,36,10.60
2008,10,18,10,37,10.60
2008,10,18,10,38,10.60
2008,10,18,10,39,10.50
2008,10,18,10,40,10.40
2008,10,18,10,41,10.40
2008,10,18,10,42,10.40
2008,10,18,10,43,10.40
2008,10,18,10,44,10.40
2008,10,18,10,45,10.30
2008,10,18,10,46,10.30
2008,10,18,10,47,10.30
2008,10,18,10,48,10.30
2008,10,18,10,49,10.30
2008,10,18,10,50,10.30
2008,10,18,10,51,10.30
2008,10,18,10,52,10.30
2008,10,18,10,53,10.20
2008,10,18,10,54,10.20
2008,10,18,10,55,10.20
2008,10,18,10,56,10.20
2008,10,18,10,57,10.20
2008,10,18,10,58,10.20
2008,10,18,10,59,10.30
2008,10,18,11,00,10.30
2008,10,18,11,01,10.40
2008,10,18,11,02,10.40
2008,10,18,11,03,10.40
2008,10,18,11,04,10.40
2008,10,18,11,05,10.40
2008,10,18,11,06,10.40
2008,10,18,11,07,10.40
2008,10,18,11,08,10.40
2008,10,18,11,09,10.40
2008,10,18,11,10,10.40
2008,10,18,11,11,10.40
2008,10,18,11,12,10.40
2008,10,18,11,13,10.60
2008,10,18,11,14,10.60
2008,10,18,11,15,10.60
2008,10,18,11,16,10.60
2008,10,18,11,17,10.60
2008,10,18,11,18,10.60
2008,10,18,11,19,10.60
2008,10,18,11,20,10.70
2008,10,18,11,21,10.70
2008,10,18,11,22,10.70
2008,10,18,11,23,10.60
2008,10,18,11,24,10.60
2008,10,18,11,25,10.60
2008,10,18,11,26,10.70
2008,10,18,11,27,10.70
2008,10,18,11,28,10.70
2008,10,18,11,29,10.70
2008,10,18,11,30,10.70
2008,10,18,11,31,10.70
2008,10,18,11,32,10.70
2008,10,18,11,33,10.60
2008,10,18,11,34,10.60
2008,10,18,11,35,10.60
2008,10,18,11,36,10.60
2008,10,18,11,37,10.60
2008,10,18,11,38,10.60
2008,10,18,11,39,10.60
2008,10,18,11,40,10.60
2008,10,18,11,41,10.60
2008,10,18,11,42,10.60
2008,10,18,11,43,10.60
2008,10,18,11,44,10.60
2008,10,18,11,45,10.60
2008,10,18,11,46,10.60
2008,10,18,11,47,10.60
2008,10,18,11,48,10.60
2008,10,18,11,49,10.60
2008,10,18,11,50,10.60
2008,10,18,11,51,10.60
2008,10,18,11,52,10.60
2008,10,18,11,53,10.60
2008,10,18,11,54,10.70
2008,10,18,11,55,10.80
2008,10,18,11,56,10.90
2008,10,18,11,57,10.90
2008,10,18,11,58,11.10
2008,10,18,11,59,11.10
2008,10,18,12,00,11.10
2008,10,18,12,01,11.20
2008,10,18,12,02,11.30
2008,10,18,12,03,11.40
2008,10,18,12,04,11.50
2008,10,18,12,05,11.60
2008,10,18,12,06,11.60
2008,10,18,12,07,11.70
2008,10,18,12,08,11.70
2008,10,18,12,09,11.70
2008,10,18,12,10,11.80
2008,10,18,12,11,11.80
2008,10,18,12,12,12.00
2008,10,18,12,13,12.10
2008,10,18,12,14,12.20
2008,10,18,12,15,12.40
2008,10,18,12,16,12.50
2008,10,18,12,17,12.60
2008,10,18,12,18,12.60
2008,10,18,12,19,12.60
2008,10,18,12,20,12.60
2008,10,18,12,21,12.60
2008,10,18,12,22,12.60
2008,10,18,12,23,12.70
2008,10,18,12,24,12.70
2008,10,18,12,25,12.70
2008,10,18,12,26,12.70
2008,10,18,12,27,12.80
2008,10,18,12,28,12.80
2008,10,18,12,29,12.80
2008,10,18,12,30,12.80
2008,10,18,12,31,12.80
2008,10,18,12,32,12.80
2008,10,18,12,33,12.80
2008,10,18,12,34,12.80
2008,10,18,12,35,12.70
2008,10,18,12,36,12.70
2008,10,18,12,37,12.70
2008,10,18,12,38,12.60
2008,10,18,12,39,12.50
2008,10,18,12,40,12.50
2008,10,18,12,41,12.50
2008,10,18,12,42,12.50
2008,10,18,12,43,12.50
2008,10,18,12,44,12.60
2008,10,18,12,45,12.60
2008,10,18,12,46,12.70
2008,10,18,12,47,12.70
2008,10,18,12,48,12.80
2008,10,18,12,49,12.80
2008,10,18,12,50,12.90
2008,10,18,12,51,12.90
2008,10,18,12,52,12.90
2008,10,18,12,53,13.00
2008,10,18,12,54,13.00
2008,10,18,12,55,13.00
2008,10,18,12,56,13.00
2008,10,18,12,57,13.00
2008,10,18,12,58,13.00
2008,10,18,12,59,13.00
2008,10,18,13,00,13.00
2008,10,18,13,01,12.90
2008,10,18,13,02,12.80
2008,10,18,13,03,12.80
2008,10,18,13,04,12.80
2008,10,18,13,05,12.70
2008,10,18,13,06,12.70
2008,10,18,13,07,12.70
2008,10,18,13,08,12.70
2008,10,18,13,09,12.70
2008,10,18,13,10,12.70
2008,10,18,13,11,12.70
2008,10,18,13,12,12.70
2008,10,18,13,13,12.70
2008,10,18,13,14,12.70
2008,10,18,13,15,12.70
2008,10,18,13,16,12.70
2008,10,18,13,17,12.70
2008,10,18,13,18,12.70
2008,10,18,13,19,12.80
2008,10,18,13,20,12.80
2008,10,18,13,21,12.80
2008,10,18,13,22,12.80
2008,10,18,13,23,12.80
2008,10,18,13,24,12.80
2008,10,18,13,25,12.80
2008,10,18,13,26,12.80
2008,10,18,13,27,12.80
2008,10,18,13,28,12.80
2008,10,18,13,29,12.80
2008,10,18,13,30,12.80
2008,10,18,13,31,12.80
2008,10,18,13,32,12.70
2008,10,18,13,33,12.60
2008,10,18,13,34,12.60
2008,10,18,13,35,12.50
2008,10,18,13,36,12.50
2008,10,18,13,37,12.40
2008,10,18,13,38,12.40
2008,10,18,13,39,12.40
2008,10,18,13,40,12.40
2008,10,18,13,41,12.40
2008,10,18,13,42,12.40
2008,10,18,13,43,12.30
2008,10,18,13,44,12.30
2008,10,18,13,45,12.30
2008,10,18,13,46,12.30
2008,10,18,13,47,12.30
2008,10,18,13,48,12.30
2008,10,18,13,49,12.30
2008,10,18,13,50,12.30
2008,10,18,13,51,12.40
2008,10,18,13,52,12.40
2008,10,18,13,53,12.30
2008,10,18,13,54,12.30
2008,10,18,13,55,12.30
2008,10,18,13,56,12.30
2008,10,18,13,57,12.20
2008,10,18,13,58,12.20
2008,10,18,13,59,12.20
2008,10,18,14,00,12.20
2008,10,18,14,01,12.30
2008,10,18,14,02,12.30
2008,10,18,14,03,12.30
2008,10,18,14,04,12.30
2008,10,18,14,05,12.30
2008,10,18,14,06,12.30
2008,10,18,14,07,12.30
2008,10,18,14,08,12.30
2008,10,18,14,09,12.30
2008,10,18,14,10,12.30
2008,10,18,14,11,12.30
2008,10,18,14,12,12.40
2008,10,18,14,13,12.40
2008,10,18,14,14,12.40
2008,10,18,14,15,12.50
2008,10,18,14,16,12.50
2008,10,18,14,17,12.60
2008,10,18,14,18,12.70
2008,10,18,14,19,12.70
2008,10,18,14,20,12.70
2008,10,18,14,21,12.60
2008,10,18,14,22,12.60
2008,10,18,14,23,12.50
2008,10,18,14,24,12.40
2008,10,18,14,25,12.30
2008,10,18,14,26,12.30
2008,10,18,14,27,12.20
2008,10,18,14,28,12.10
2008,10,18,14,29,12.10
2008,10,18,14,30,12.00
2008,10,18,14,31,12.00
2008,10,18,14,32,12.00
2008,10,18,14,33,11.90
2008,10,18,14,34,11.90
2008,10,18,14,35,11.80
2008,10,18,14,36,11.80
2008,10,18,14,37,11.80
2008,10,18,14,38,11.70
2008,10,18,14,39,11.70
2008,10,18,14,40,11.60
2008,10,18,14,41,11.60
2008,10,18,14,42,11.60
2008,10,18,14,43,11.60
2008,10,18,14,44,11.60
2008,10,18,14,45,11.70
2008,10,18,14,46,11.80
2008,10,18,14,47,11.80
2008,10,18,14,48,11.80
2008,10,18,14,49,11.80
2008,10,18,14,50,11.90
2008,10,18,14,51,11.90
2008,10,18,14,52,12.00
2008,10,18,14,53,12.00
2008,10,18,14,54,12.10
2008,10,18,14,55,12.20
2008,10,18,14,56,12.20
2008,10,18,14,57,12.30
2008,10,18,14,58,12.30
2008,10,18,14,59,12.30
2008,10,18,15,00,12.40
2008,10,18,15,01,12.40
2008,10,18,15,02,12.40
2008,10,18,15,03,12.40
2008,10,18,15,04,12.30
2008,10,18,15,05,12.30
2008,10,18,15,06,12.30
2008,10,18,15,07,12.20
2008,10,18,15,08,12.20
2008,10,18,15,09,12.20
2008,10,18,15,10,12.20
2008,10,18,15,11,12.20
2008,10,18,15,12,12.20
2008,10,18,15,13,12.20
2008,10,18,15,14,12.30
2008,10,18,15,15,12.30
2008,10,18,15,16,12.30
2008,10,18,15,17,12.30
2008,10,18,15,18,12.30
2008,10,18,15,19,12.30
2008,10,18,15,20,12.30
2008,10,18,15,21,12.40
2008,10,18,15,22,12.40
2008,10,18,15,23,12.30
2008,10,18,15,24,12.30
2008,10,18,15,25,12.40
2008,10,18,15,26,12.50
2008,10,18,15,27,12.60
2008,10,18,15,28,12.60
2008,10,18,15,29,12.60
2008,10,18,15,30,12.60
2008,10,18,15,31,12.60
2008,10,18,15,32,12.60
2008,10,18,15,33,12.70
2008,10,18,15,34,12.70
2008,10,18,15,35,12.80
2008,10,18,15,36,12.80
2008,10,18,15,37,12.80
2008,10,18,15,38,12.80
2008,10,18,15,39,12.80
2008,10,18,15,40,12.70
2008,10,18,15,41,12.70
2008,10,18,15,42,12.70
2008,10,18,15,43,12.80
2008,10,18,15,44,12.80
2008,10,18,15,45,12.90
2008,10,18,15,46,12.80
2008,10,18,15,47,12.80
2008,10,18,15,48,12.80
2008,10,18,15,49,12.80
2008,10,18,15,50,12.70
2008,10,18,15,51,12.60
2008,10,18,15,52,12.50
2008,10,18,15,53,12.50
2008,10,18,15,54,12.40
2008,10,18,15,55,12.40
2008,10,18,15,56,12.40
2008,10,18,15,57,12.40
2008,10,18,15,58,12.50
2008,10,18,15,59,12.50
2008,10,18,16,00,12.60
2008,10,18,16,01,12.60
2008,10,18,16,02,12.60
2008,10,18,16,03,12.70
2008,10,18,16,04,12.80
2008,10,18,16,05,12.80
2008,10,18,16,06,12.80
2008,10,18,16,07,12.80
2008,10,18,16,08,12.80
2008,10,18,16,09,12.80
2008,10,18,16,10,12.70
2008,10,18,16,11,12.70
2008,10,18,16,12,12.60
2008,10,18,16,13,12.50
2008,10,18,16,14,12.40
2008,10,18,16,15,12.40
2008,10,18,16,16,12.40
2008,10,18,16,17,12.40
2008,10,18,16,18,12.40
2008,10,18,16,19,12.50
2008,10,18,16,20,12.50
2008,10,18,16,21,12.50
2008,10,18,16,22,12.60
2008,10,18,16,23,12.60
2008,10,18,16,24,12.60
2008,10,18,16,25,12.60
2008,10,18,16,26,12.60
2008,10,18,16,27,12.50
2008,10,18,16,28,12.50
2008,10,18,16,29,12.40
2008,10,18,16,30,12.30
2008,10,18,16,31,12.20
2008,10,18,16,32,12.10
2008,10,18,16,33,12.00
2008,10,18,16,34,11.90
2008,10,18,16,35,11.90
2008,10,18,16,36,11.90
2008,10,18,16,37,11.90
2008,10,18,16,38,11.80
2008,10,18,16,39,11.70
2008,10,18,16,40,11.60
2008,10,18,16,41,11.60
2008,10,18,16,42,11.50
2008,10,18,16,43,11.40
2008,10,18,16,44,11.40
2008,10,18,16,45,11.40
2008,10,18,16,46,11.30
2008,10,18,16,47,11.20
2008,10,18,16,48,11.20
2008,10,18,16,49,11.20
2008,10,18,16,50,11.10
2008,10,18,16,51,11.10
2008,10,18,16,52,11.10
2008,10,18,16,53,11.10
2008,10,18,16,54,11.10
2008,10,18,16,55,11.10
2008,10,18,16,56,11.10
2008,10,18,16,57,11.10
2008,10,18,16,58,11.10
2008,10,18,16,59,11.10
2008,10,18,17,00,11.10
2008,10,18,17,01,11.00
2008,10,18,17,02,10.90
2008,10,18,17,03,10.90
2008,10,18,17,04,10.90
2008,10,18,17,05,10.90
2008,10,18,17,06,10.90
2008,10,18,17,07,10.80
2008,10,18,17,08,10.80
2008,10,18,17,09,10.80
2008,10,18,17,10,10.80
2008,10,18,17,11,10.70
2008,10,18,17,12,10.70
2008,10,18,17,13,10.70
2008,10,18,17,14,10.70
2008,10,18,17,15,10.60
2008,10,18,17,16,10.60
2008,10,18,17,17,10.60
2008,10,18,17,18,10.60
2008,10,18,17,19,10.60
2008,10,18,17,20,10.50
2008,10,18,17,21,10.40
2008,10,18,17,22,10.40
2008,10,18,17,23,10.40
2008,10,18,17,24,10.40
2008,10,18,17,25,10.30
2008,10,18,17,26,10.30
2008,10,18,17,27,10.20
2008,10,18,17,28,10.20
2008,10,18,17,29,10.10
2008,10,18,17,30,10.10
2008,10,18,17,31,10.10
2008,10,18,17,32,10.00
2008,10,18,17,33,9.90
2008,10,18,17,34,9.90
2008,10,18,17,35,9.90
2008,10,18,17,36,9.90
2008,10,18,17,37,9.80
2008,10,18,17,38,9.80
2008,10,18,17,39,9.80
2008,10,18,17,40,9.70
2008,10,18,17,41,9.70
2008,10,18,17,42,9.70
2008,10,18,17,43,9.70
2008,10,18,17,44,9.70
2008,10,18,17,45,9.60
2008,10,18,17,46,9.60
2008,10,18,17,47,9.50
2008,10,18,17,48,9.50
2008,10,18,17,49,9.50
2008,10,18,17,50,9.40
2008,10,18,17,51,9.40
2008,10,18,17,52,9.30
2008,10,18,17,53,9.30
2008,10,18,17,54,9.20
2008,10,18,17,55,9.20
2008,10,18,17,56,9.20
2008,10,18,17,57,9.10
2008,10,18,17,58,9.10
2008,10,18,17,59,9.10
2008,10,18,18,00,9.00
2008,10,18,18,01,9.00
2008,10,18,18,02,8.90
2008,10,18,18,03,8.90
2008,10,18,18,04,8.90
2008,10,18,18,05,8.80
2008,10,18,18,06,8.70
2008,10,18,18,07,8.70
2008,10,18,18,08,8.70
2008,10,18,18,09,8.70
2008,10,18,18,10,8.60
2008,10,18,18,11,8.50
2008,10,18,18,12,8.50
2008,10,18,18,13,8.40
2008,10,18,18,14,8.40
2008,10,18,18,15,8.30
2008,10,18,18,16,8.20
2008,10,18,18,17,8.20
2008,10,18,18,18,8.20
2008,10,18,18,19,8.10
2008,10,18,18,20,8.10
2008,10,18,18,21,8.10
2008,10,18,18,22,8.00
2008,10,18,18,23,8.00
2008,10,18,18,24,7.90
2008,10,18,18,25,7.90
2008,10,18,18,26,7.90
2008,10,18,18,27,7.80
2008,10,18,18,28,7.80
2008,10,18,18,29,7.80
2008,10,18,18,30,7.70
2008,10,18,18,31,7.70
2008,10,18,18,32,7.60
2008,10,18,18,33,7.60
2008,10,18,18,34,7.60
2008,10,18,18,35,7.50